Total_Precipitation_Accumulation
0.05 0.05 0.07 0.07 0.09 0.12 0.15 0.20 0.32 0.40 0.33 0.43 0.57 0.86 0.96 1.05 1.24 1.22 1.09 1.11 1.39 1.59 1.88 2.35 2.91 3.75 4.86 5.84 6.16 5.68 5.22 4.95 4.57 4.21 3.63 3.32 3.45 3.42 3.19 2.86 2.50 2.45 2.34 2.40
0.07 0.08 0.06 0.05 0.08 0.11 0.15 0.21 0.32 0.38 0.29 0.35 0.59 0.94 1.24 1.20 1.12 1.08 1.16 1.18 1.27 1.62 2.07 2.79 3.82 4.41 4.69 4.86 4.62 4.31 4.10 3.95 3.46 3.21 3.14 2.95 3.05 2.80 2.64 2.56 2.66 2.27 2.13 2.20
0.08 0.08 0.07 0.06 0.09 0.17 0.18 0.22 0.30 0.37 0.27 0.34 0.63 1.18 1.47 1.38 1.13 0.98 1.07 1.12 1.27 1.66 2.25 3.07 3.67 3.80 3.55 3.23 3.11 3.08 3.21 3.00 2.89 2.96 2.91 2.86 2.98 2.70 2.52 2.48 2.63 2.24 1.94 1.93
0.10 0.07 0.06 0.06 0.09 0.15 0.20 0.15 0.13 0.17 0.27 0.52 0.76 1.47 1.62 1.39 1.30 1.09 1.12 1.14 1.16 1.41 1.80 2.23 2.51 2.41 2.50 2.63 2.65 2.80 2.93 2.70 2.73 2.70 2.46 2.41 2.40 2.30 2.27 2.34 2.45 2.49 2.04 1.86
0.10 0.09 0.08 0.08 0.08 0.09 0.09 0.08 0.11 0.18 0.34 0.58 0.80 1.19 1.39 1.17 1.32 1.11 1.00 0.99 0.92 1.11 1.28 1.41 1.51 1.63 1.83 1.96 2.14 2.42 2.71 2.70 2.56 2.39 2.39 2.46 2.32 2.31 2.31 2.35 2.45 2.55 2.32 2.01
0.09 0.09 0.08 0.07 0.06 0.07 0.08 0.11 0.21 0.33 0.53 1.07 1.05 1.09 1.34 1.32 1.34 1.16 1.00 0.83 0.83 0.96 1.11 1.18 1.21 1.33 1.51 1.66 1.89 2.14 2.51 2.61 2.56 2.39 2.29 2.35 2.43 2.43 2.39 2.44 2.43 2.25 2.22 2.18
0.13 0.10 0.08 0.07 0.08 0.09 0.10 0.15 0.40 0.77 1.15 1.32 0.87 0.96 1.25 1.16 1.02 0.90 0.69 0.63 0.72 0.90 1.05 1.17 1.19 1.20 1.27 1.43 1.57 1.67 1.93 2.20 2.31 2.26 2.23 2.25 2.43 2.37 2.21 2.14 2.11 2.10 1.90 1.85
0.18 0.15 0.09 0.07 0.09 0.11 0.09 0.11 0.25 0.44 0.54 0.69 0.86 1.25 1.37 1.14 0.76 0.51 0.49 0.61 0.77 0.90 0.97 1.09 1.11 1.07 1.10 1.19 1.37 1.53 1.84 2.00 2.19 2.21 2.19 2.23 2.32 2.22 2.06 2.10 1.89 1.88 1.81 1.72
0.09 0.09 0.06 0.06 0.08 0.10 0.10 0.11 0.11 0.18 0.24 0.49 0.88 1.18 1.15 0.98 0.75 0.59 0.55 0.60 0.76 0.81 0.81 0.93 0.98 1.11 1.17 1.12 1.24 1.42 1.73 2.06 2.28 2.36 2.41 2.34 2.33 2.33 2.28 2.21 1.96 1.76 1.89 1.79
0.05 0.07 0.07 0.06 0.07 0.09 0.10 0.12 0.15 0.16 0.25 0.42 0.72 1.15 1.37 1.20 0.95 0.79 0.70 0.67 0.75 0.77 0.80 1.02 1.20 1.26 1.13 0.99 1.06 1.21 1.53 2.03 2.30 2.46 2.42 2.24 2.39 2.30 2.29 2.20 2.01 1.84 1.83 1.88
0.03 0.05 0.08 0.07 0.09 0.11 0.10 0.12 0.16 0.17 0.18 0.27 0.57 0.83 0.81 0.83 0.78 0.75 0.80 0.76 0.63 0.69 0.85 1.09 1.35 1.34 1.10 0.93 0.93 1.08 1.46 1.81 2.05 2.22 2.29 2.15 2.10 2.03 2.02 2.03 1.97 1.96 1.97 1.95
0.03 0.04 0.06 0.09 0.11 0.11 0.12 0.14 0.18 0.22 0.20 0.19 0.33 0.59 0.46 0.55 0.64 0.72 0.83 0.89 0.84 0.87 0.93 1.00 1.16 1.30 1.19 1.06 1.00 1.21 1.51 1.72 1.85 1.96 2.01 1.98 1.98 1.97 1.88 1.83 1.89 1.96 1.88 1.80
0.04 0.04 0.07 0.16 0.22 0.17 0.13 0.13 0.15 0.19 0.22 0.19 0.35 0.62 0.47 0.43 0.65 0.76 0.82 0.99 1.11 0.87 0.77 0.82 0.96 1.10 1.22 1.19 1.18 1.35 1.53 1.63 1.67 1.64 1.72 1.74 1.75 1.72 1.70 1.71 1.76 1.83 1.86 1.85
0.04 0.04 0.05 0.15 0.23 0.23 0.18 0.14 0.16 0.16 0.15 0.17 0.25 0.54 0.50 0.48 0.68 0.97 1.03 1.01 0.86 0.80 0.79 0.80 0.90 1.09 1.18 1.26 1.27 1.31 1.47 1.59 1.57 1.53 1.62 1.80 1.87 1.92 1.90 1.83 1.86 1.96 2.06 2.00
0.05 0.04 0.03 0.05 0.09 0.15 0.17 0.18 0.16 0.12 0.11 0.17 0.20 0.40 0.44 0.55 0.72 0.89 0.94 0.82 0.74 0.80 0.83 0.83 0.91 1.09 1.23 1.40 1.46 1.45 1.48 1.54 1.68 1.80 1.88 2.09 2.28 2.33 2.20 2.15 2.22 2.24 2.28 2.21
0.05 0.05 0.04 0.05 0.08 0.14 0.16 0.18 0.13 0.09 0.09 0.13 0.19 0.32 0.40 0.54 0.66 0.74 0.74 0.71 0.81 0.85 0.84 0.79 0.89 1.11 1.18 1.23 1.32 1.36 1.42 1.50 1.59 1.69 1.85 2.10 2.32 2.44 2.39 2.43 2.58 2.58 2.53 2.63
0.08 0.08 0.07 0.08 0.11 0.13 0.22 0.18 0.14 0.14 0.13 0.16 0.25 0.31 0.37 0.50 0.66 0.79 0.81 0.85 0.89 0.90 0.87 0.85 0.87 0.99 1.22 1.16 1.17 1.30 1.42 1.58 1.74 2.00 2.20 2.34 2.51 2.62 2.59 2.54 2.58 2.61 2.64 2.64
0.19 0.18 0.16 0.14 0.17 0.26 0.25 0.21 0.20 0.23 0.28 0.29 0.32 0.39 0.46 0.57 0.71 0.83 0.89 0.87 0.99 1.09 1.16 1.20 1.27 1.27 1.36 1.32 1.32 1.42 1.56 1.75 1.85 1.97 2.20 2.36 2.57 2.65 2.67 2.74 2.72 2.79 2.89 2.92
0.30 0.33 0.28 0.24 0.26 0.30 0.32 0.32 0.34 0.39 0.51 0.55 0.61 0.66 0.67 0.71 0.75 0.90 1.03 1.11 1.23 1.19 1.23 1.36 1.43 1.46 1.47 1.53 1.66 1.85 1.92 2.10 2.28 2.40 2.56 2.65 2.67 2.74 2.77 2.80 2.94 3.06 3.17 3.16
0.34 0.40 0.40 0.34 0.43 0.51 0.51 0.50 0.46 0.55 0.89 0.79 0.87 0.97 0.96 1.03 1.27 1.34 1.33 1.33 1.38 1.35 1.38 1.46 1.49 1.54 1.74 1.80 1.87 2.06 2.29 2.46 2.65 2.81 2.90 2.96 2.99 2.99 2.94 2.94 3.05 3.12 3.18 3.18
0.44 0.50 0.50 0.47 0.50 0.55 0.55 0.55 0.56 0.99 1.35 1.26 1.28 1.31 1.24 1.38 1.48 1.36 1.29 1.41 1.47 1.54 1.59 1.61 1.64 1.73 1.87 1.95 2.03 2.22 2.51 2.75 2.95 2.99 3.04 3.08 3.15 3.28 3.38 3.42 3.23 3.08 3.07 3.13
0.73 0.77 0.75 0.72 0.88 0.96 0.67 0.75 1.11 1.39 1.33 1.55 1.44 1.30 1.32 1.32 1.28 1.23 1.25 1.41 1.59 1.71 1.75 1.78 1.80 1.85 1.89 2.04 2.19 2.30 2.56 2.70 2.89 2.93 3.04 3.11 3.13 3.05 3.07 3.33 3.36 3.31 3.22 3.12
1.01 1.05 1.09 1.06 1.19 1.08 0.89 0.96 1.23 1.28 1.29 1.44 1.44 1.25 1.21 1.22 1.17 1.18 1.25 1.36 1.50 1.62 1.70 1.71 1.76 1.90 1.91 1.95 2.15 2.42 2.50 2.58 2.62 2.74 2.86 3.06 3.14 3.21 3.16 3.12 3.19 3.19 3.14 2.99
1.22 1.04 1.20 1.41 1.43 1.29 1.12 1.01 1.09 1.16 1.23 1.29 1.42 1.43 1.31 1.26 1.21 1.26 1.30 1.35 1.50 1.63 1.68 1.75 1.71 1.74 1.86 1.97 2.15 2.25 2.29 2.42 2.64 2.76 2.80 2.87 2.96 3.02 3.09 3.15 3.08 3.02 3.01 2.96
1.32 1.29 1.52 1.92 1.97 1.81 1.63 1.40 1.29 1.26 1.28 1.38 1.49 1.56 1.61 1.56 1.49 1.50 1.44 1.46 1.57 1.63 1.60 1.70 1.79 1.82 1.89 1.97 2.12 2.26 2.32 2.37 2.50 2.55 2.51 2.59 2.77 2.88 2.95 3.07 3.11 2.94 2.81 2.83
1.33 1.56 1.95 2.30 2.12 2.12 1.99 1.62 1.46 1.49 1.58 1.57 1.59 1.63 1.60 1.60 1.58 1.60 1.63 1.55 1.48 1.46 1.57 1.72 1.79 1.86 1.90 1.93 2.02 2.07 2.13 2.28 2.43 2.51 2.53 2.51 2.57 2.72 2.82 2.77 2.82 2.85 2.59 2.51